| time (UTC) | temp C | wind direction | speed KPH | gust KPH | rain 1hr cm | rain 24hr cm | rain mn cm | humidity % | barometer mb |
| 20260507110012 | 9 | 298 | 0.0 | 0.0 | 0.00 | 0.00 | 0.00 | 70 | 1011.7 |
| 20260507104512 | 9 | 298 | 0.0 | 0.0 | 0.00 | 0.00 | 0.00 | 69 | 1011.8 |
| 20260507103012 | 9 | 298 | 0.0 | 0.0 | 0.00 | 0.00 | 0.00 | 69 | 1011.2 |
| 20260507101514 | 9 | 298 | 0.0 | 0.0 | 0.00 | 0.00 | 0.00 | 69 | 1011.5 |
| 20260507100007 | 9 | 298 | 0.0 | 0.0 | 0.00 | 0.00 | 0.00 | 69 | 1011.1 |
| 20260507094504 | 9 | 286 | 0.0 | 3.2 | 0.00 | 0.00 | 0.00 | 68 | 1010.9 |
| 20260507093002 | 10 | 286 | 0.0 | 1.6 | 0.00 | 0.00 | 0.00 | 68 | 1011.0 |
| 20260507091600 | 10 | 284 | 0.0 | 1.6 | 0.00 | 0.00 | 0.00 | 67 | 1011.1 |
| 20260507084601 | 10 | 291 | 0.0 | 0.0 | 0.00 | 0.00 | 0.00 | 67 | 1011.0 |
| 20260507083056 | 10 | 291 | 0.0 | 0.0 | 0.00 | 0.00 | 0.00 | 66 | 1010.7 |
| 20260507081555 | 11 | 291 | 0.0 | 0.0 | 0.00 | 0.00 | 0.00 | 65 | 1010.8 |
| 20260507080111 | 11 | 287 | 0.0 | 6.4 | 0.00 | 0.00 | 0.00 | 64 | 1010.8 |
| 20260507074551 | 11 | 287 | 1.6 | 16.1 | 0.00 | 0.00 | 0.00 | 62 | 1010.9 |
| 20260507073052 | 11 | 136 | 0.0 | 4.8 | 0.00 | 0.00 | 0.00 | 63 | 1010.0 |
| 20260507071546 | 11 | 286 | 0.0 | 0.0 | 0.00 | 0.00 | 0.00 | 65 | 1010.1 |
| 20260507070045 | 12 | 286 | 0.0 | 4.8 | 0.00 | 0.00 | 0.00 | 64 | 1010.0 |
| 20260507064544 | 12 | 288 | 0.0 | 1.6 | 0.00 | 0.00 | 0.00 | 64 | 1010.2 |
| 20260507063041 | 12 | 288 | 0.0 | 3.2 | 0.00 | 0.00 | 0.00 | 65 | 1010.1 |
| 20260507061539 | 12 | 289 | 0.0 | 3.2 | 0.00 | 0.00 | 0.00 | 66 | 1010.1 |
| 20260507060042 | 12 | 289 | 0.0 | 4.8 | 0.00 | 0.00 | 0.00 | 67 | 1010.1 |
| 20260507054538 | 13 | 298 | 0.0 | 6.4 | 0.00 | 0.00 | 0.00 | 69 | 1010.3 |
| 20260507053033 | 13 | 337 | 0.0 | 0.0 | 0.00 | 0.00 | 0.00 | 69 | 1010.2 |
| 20260507051532 | 13 | 341 | 0.0 | 3.2 | 0.00 | 0.00 | 0.00 | 69 | 1010.1 |
| 20260507050029 | 14 | 217 | 0.0 | 3.2 | 0.00 | 0.00 | 0.00 | 72 | 1010.2 |
| 20260507044524 | 15 | 215 | 1.6 | 6.4 | 0.00 | 0.00 | 0.00 | 74 | 1010.1 |
| 20260507043025 | 15 | 217 | 0.0 | 4.8 | 0.00 | 0.00 | 0.00 | 74 | 1010.0 |
| 20260507041522 | 15 | 213 | 0.0 | 1.6 | 0.00 | 0.00 | 0.00 | 74 | 1010.1 |
| 20260507040019 | 15 | 223 | 0.0 | 3.2 | 0.00 | 0.00 | 0.00 | 74 | 1010.3 |
| 20260507034520 | 15 | 220 | 0.0 | 4.8 | 0.00 | 0.00 | 0.00 | 74 | 1010.6 |
| 20260507033021 | 15 | 251 | 0.0 | 4.8 | 0.00 | 0.00 | 0.00 | 73 | 1010.0 |
| 20260507031518 | 15 | 271 | 0.0 | 4.8 | 0.00 | 0.00 | 0.00 | 73 | 1009.5 |
| 20260507030019 | 15 | 259 | 0.0 | 9.7 | 0.00 | 0.00 | 0.00 | 73 | 1009.3 |
| 20260507024516 | 15 | 192 | 0.0 | 8.0 | 0.00 | 0.00 | 0.00 | 73 | 1009.5 |
| 20260507023014 | 15 | 204 | 0.0 | 4.8 | 0.00 | 0.00 | 0.00 | 73 | 1009.6 |
| 20260507021514 | 15 | 251 | 0.0 | 4.8 | 0.00 | 0.00 | 0.00 | 74 | 1009.7 |
| 20260507020013 | 14 | 241 | 1.6 | 11.3 | 0.00 | 0.00 | 0.00 | 74 | 1009.7 |
| 20260507014515 | 14 | 208 | 0.0 | 6.4 | 0.00 | 0.00 | 0.00 | 74 | 1009.9 |
| 20260507013020 | 14 | 223 | 0.0 | 4.8 | 0.00 | 0.00 | 0.00 | 74 | 1010.1 |
| 20260507011513 | 14 | 219 | 0.0 | 8.0 | 0.00 | 0.00 | 0.00 | 74 | 1010.1 |
| 20260507010013 | 13 | 198 | 0.0 | 4.8 | 0.00 | 0.00 | 0.00 | 74 | 1010.2 |
| 20260507004509 | 13 | 260 | 0.0 | 3.2 | 0.00 | 0.00 | 0.00 | 74 | 1010.2 |
| 20260507003008 | 13 | 169 | 0.0 | 6.4 | 0.00 | 0.00 | 0.00 | 74 | 1010.2 |
| 20260507001510 | 13 | 119 | 0.0 | 9.7 | 0.00 | 0.00 | 0.00 | 73 | 1010.0 |
| 20260507000007 | 13 | 202 | 0.0 | 4.8 | 0.00 | 0.00 | 0.00 | 73 | 1010.0 |
| 20260506234506 | 13 | 203 | 0.0 | 4.8 | 0.00 | 0.00 | 0.00 | 72 | 1010.0 |
| 20260506233008 | 13 | 121 | 0.0 | 11.3 | 0.00 | 0.00 | 0.00 | 71 | 1010.0 |
| 20260506231504 | 14 | 164 | 0.0 | 9.7 | 0.00 | 0.00 | 0.00 | 70 | 1010.2 |
| 20260506230001 | 14 | 122 | 0.0 | 6.4 | 0.00 | 0.00 | 0.00 | 70 | 1010.1 |
| 20260506224600 | 14 | 197 | 0.0 | 16.1 | 0.00 | 0.00 | 0.00 | 69 | 1010.2 |
| 20260506223057 | 15 | 264 | 0.0 | 8.0 | 0.00 | 0.00 | 0.00 | 69 | 1010.3 |
| 20260506221606 | 15 | 200 | 0.0 | 9.7 | 0.00 | 0.00 | 0.00 | 68 | 1010.4 |
| 20260506220054 | 15 | 113 | 0.0 | 6.4 | 0.00 | 0.00 | 0.00 | 67 | 1010.7 |
| 20260506214555 | 16 | 188 | 0.0 | 6.4 | 0.00 | 0.00 | 0.00 | 66 | 1010.8 |
| 20260506213110 | 16 | 227 | 0.0 | 6.4 | 0.00 | 0.00 | 0.00 | 66 | 1010.9 |
| 20260506211550 | 16 | 229 | 0.0 | 1.6 | 0.00 | 0.00 | 0.00 | 66 | 1011.0 |
| 20260506210050 | 16 | 121 | 0.0 | 12.9 | 0.00 | 0.00 | 0.00 | 65 | 1011.1 |
| 20260506204549 | 16 | 107 | 0.0 | 6.4 | 0.00 | 0.00 | 0.00 | 63 | 1011.1 |
| 20260506203048 | 16 | 102 | 0.0 | 14.5 | 0.00 | 0.00 | 0.00 | 63 | 1011.2 |
| 20260506201548 | 16 | 110 | 0.0 | 12.9 | 0.00 | 0.00 | 0.00 | 62 | 1011.0 |
| 20260506200047 | 17 | 11 | 0.0 | 19.3 | 0.00 | 0.00 | 0.00 | 62 | 1011.0 |
| 20260506194548 | 17 | 163 | 0.0 | 8.0 | 0.00 | 0.00 | 0.00 | 60 | 1011.2 |
| 20260506193044 | 17 | 157 | 0.0 | 6.4 | 0.00 | 0.00 | 0.00 | 57 | 1011.4 |
| 20260506191544 | 18 | 114 | 1.6 | 11.3 | 0.00 | 0.00 | 0.00 | 54 | 1011.2 |
| 20260506190044 | 18 | 109 | 0.0 | 9.7 | 0.00 | 0.00 | 0.00 | 52 | 1011.2 |
| 20260506184550 | 18 | 184 | 1.6 | 14.5 | 0.00 | 0.00 | 0.00 | 52 | 1011.1 |
| 20260506183053 | 19 | 154 | 0.0 | 16.1 | 0.00 | 0.00 | 0.00 | 50 | 1011.3 |
| 20260506181608 | 19 | 111 | 0.0 | 16.1 | 0.00 | 0.00 | 0.00 | 50 | 1011.3 |
| 20260506180038 | 20 | 231 | 0.0 | 14.5 | 0.00 | 0.00 | 0.00 | 49 | 1011.5 |
| 20260506174536 | 20 | 153 | 0.0 | 12.9 | 0.00 | 0.00 | 0.00 | 49 | 1011.7 |
| 20260506173053 | 20 | 238 | 1.6 | 14.5 | 0.00 | 0.00 | 0.00 | 49 | 1011.9 |
| 20260506171534 | 19 | 221 | 0.0 | 16.1 | 0.00 | 0.00 | 0.00 | 51 | 1011.8 |
| 20260506170038 | 19 | 126 | 0.0 | 9.7 | 0.00 | 0.00 | 0.00 | 50 | 1012.1 |
| 20260506164537 | 20 | 159 | 0.0 | 6.4 | 0.00 | 0.00 | 0.00 | 50 | 1012.1 |
| 20260506163029 | 20 | 241 | 0.0 | 4.8 | 0.00 | 0.00 | 0.00 | 49 | 1012.3 |
| 20260506161529 | 20 | 195 | 0.0 | 8.0 | 0.00 | 0.00 | 0.00 | 49 | 1012.4 |
| 20260506160026 | 20 | 99 | 0.0 | 9.7 | 0.00 | 0.00 | 0.00 | 47 | 1012.8 |
| 20260506154525 | 21 | 288 | 0.0 | 11.3 | 0.00 | 0.00 | 0.00 | 46 | 1012.9 |
| 20260506153024 | 21 | 103 | 0.0 | 6.4 | 0.00 | 0.00 | 0.00 | 47 | 1013.1 |
| 20260506151521 | 20 | 98 | 0.0 | 11.3 | 0.00 | 0.00 | 0.00 | 49 | 1013.3 |
| 20260506150018 | 20 | 92 | 0.0 | 9.7 | 0.00 | 0.00 | 0.00 | 50 | 1013.6 |
| 20260506144520 | 20 | 108 | 0.0 | 11.3 | 0.00 | 0.00 | 0.00 | 51 | 1013.3 |
| 20260506143015 | 19 | 88 | 1.6 | 9.7 | 0.00 | 0.00 | 0.00 | 51 | 1013.3 |
| 20260506141510 | 18 | 104 | 0.0 | 12.9 | 0.00 | 0.00 | 0.00 | 54 | 1013.4 |
| 20260506140108 | 18 | 203 | 0.0 | 9.7 | 0.00 | 0.00 | 0.00 | 56 | 1013.5 |
| 20260506134507 | 17 | 269 | 0.0 | 11.3 | 0.00 | 0.00 | 0.00 | 56 | 1013.9 |
| 20260506133006 | 17 | 74 | 0.0 | 11.3 | 0.00 | 0.00 | 0.00 | 56 | 1014.0 |
| 20260506131506 | 17 | 198 | 1.6 | 17.7 | 0.00 | 0.00 | 0.00 | 56 | 1013.8 |
| 20260506130005 | 17 | 172 | 0.0 | 11.3 | 0.00 | 0.00 | 0.00 | 58 | 1013.9 |
| 20260506124504 | 16 | 121 | 0.0 | 6.4 | 0.00 | 0.00 | 0.00 | 61 | 1014.0 |
| 20260506123003 | 16 | 127 | 0.0 | 11.3 | 0.00 | 0.00 | 0.00 | 61 | 1013.9 |
| 20260506121502 | 15 | 181 | 0.0 | 6.4 | 0.00 | 0.00 | 0.00 | 62 | 1013.7 |
| 20260506114502 | 15 | 67 | 0.0 | 9.7 | 0.00 | 0.00 | 0.00 | 63 | 1014.4 |
| 20260506113059 | 15 | 207 | 0.0 | 9.7 | 0.00 | 0.00 | 0.00 | 63 | 1014.2 |
| 20260506111559 | 15 | 211 | 0.0 | 6.4 | 0.00 | 0.00 | 0.00 | 63 | 1014.2 |